Regional Weather Roundup
Issued by NWS

Home | Current Version | Previous Version | Text Only | Print | Product List | Glossary Off
Versions: 1 2 3 4 5 6 7 8 9 10 11 12 13 14 15 16 17 18 19 20 21 22 23 24 25 26 27 28 29 30 31 32 33 34 35 36 37 38 39 40 41 42 43 44 45 46 47 48 49 50

000
ASUS43 KLOT 221112
RWRIL

ILLINOIS REGIONAL WEATHER ROUNDUP
NATIONAL WEATHER SERVICE CHICAGO/ROMEOVILLE IL
600 AM CDT FRI MAY 22 2015

NOTE: "FAIR" INDICATES FEW OR NO CLOUDS BELOW 12,000 FEET WITH NO
SIGNIFICANT WEATHER AND/OR OBSTRUCTIONS TO VISIBILITY.

* THESE STATIONS ARE NOT UNDER NWS QUALITY CONTROL. THEY ALSO MAY NOT
  REPORT WEATHER SUCH AS PRECIPITATION OR FOG.

ILZ001-002-007-009-015-016-024-221200-
NORTHWEST ILLINOIS

CITY           SKY/WX    TMP DP  RH WIND       PRES   REMARKS
MOLINE         CLEAR     46  40  79 CALM      30.14R
STERLING*      CLEAR     46  43  87 CALM      30.14R
SAVANNA*       CLEAR     45  43  93 N3        30.14R
$$

ILZ003-004-008-010-011-017-018-221200-
NORTH CENTRAL ILLINOIS

CITY           SKY/WX    TMP DP  RH WIND       PRES   REMARKS
ROCKFORD       CLEAR     47  35  63 CALM      30.16R
FREEPORT*      CLEAR     43  40  88 CALM      30.16R
ROCHELLE*      CLEAR     45  42  89 NE6       30.13R
DE KALB*       CLEAR     43  39  85 NE7       30.14R
PERU*          CLEAR     49  44  83 W6        30.14R
$$

ILZ005-006-012>014-019>023-221200-
NORTHEAST ILLINOIS

CITY           SKY/WX    TMP DP  RH WIND       PRES   REMARKS
CHICAGO-OHARE  CLEAR     47  39  74 N7        30.12R
CHICAGO-MIDWAY CLEAR     50  42  74 N6        30.12R
AURORA         CLEAR     48  42  80 N5        30.13R
LANSING*       CLEAR     48  43  81 NE3       30.12R
JOLIET*        CLEAR     45  44  97 CALM      30.12R
WAUKEGAN       CLEAR     43  38  82 N5        30.14R
DUPAGE AIRPORT CLEAR     45  39  79 N6        30.12R
KANKAKEE*      CLEAR     48  45  87 W3        30.12R
WHEELING       CLEAR     45  37  73 CALM      30.15R
MORRIS*        CLEAR     49  43  79 CALM      30.08R
ROMEOVILLE*    CLEAR     47  42  85 NE3       30.12R
NORTHERLY ISL    N/A     48  41  76 MISG        N/A
$$

LMZ740>746-221200-
SOUTHERN LAKE MICHIGAN

STATION/POSITION SKY/WX   TEMP    WIND        PRES    VSBY  WAVE
                          AIR SEA DIR/SP/G                  HT/PER
                          (F)     (DEG/KT/KT) (MB)    (MI)  (FT/S)
SOUTHERN BUOY              41 38  350/  6/  6 1021.3R
HARRISON CRIB              47     350/ 11/ 12   N/A
BURNHAM HARBOR             48     360/  9/ 12   N/A
CALUMET HARBOR             49     340/  7/  9   N/A
BURNS HARBOR               53     270/  4/  8 1019.3R
MICHIGAN CITY              52      40/  5/  6   N/A
MICHIGAN CITY 6N           49 51   30/  8/ 12   N/A           1
ST. JOSEPH                 53 53   70/  8/ 10   N/A           1/ 3
$$

ILZ025>027-034>036-040-047-049-050-058-095>099-221200-
WEST-CENTRAL ILLINOIS

CITY           SKY/WX    TMP DP  RH WIND       PRES   REMARKS
QUINCY         CLEAR     51  43  74 W6        30.17S
GALESBURG*     CLEAR     47  43  87 N3        30.15R
MACOMB*        CLEAR     50  46  85 W7        30.17S
JACKSONVILLE*  CLEAR     53  46  76 W8        30.16S
PITTSFIELD*    CLEAR     55  45  67 W8        30.18S
$$

ILZ028>032-037-038-041>044-048-051>054-059>061-221200-
CENTRAL ILLINOIS

CITY           SKY/WX    TMP DP  RH WIND       PRES   REMARKS
PONTIAC        CLEAR     50  47  88 W6        30.14R
BLOOMINGTON    CLEAR     51  47  86 W9        30.15R
DECATUR        CLEAR     52  45  77 W9        30.15S
PEORIA         CLEAR     51  44  77 VRB3      30.15R
LACON*         CLEAR     50  44  80 CALM      30.13R
LINCOLN*       CLEAR     54  46  73 W6        30.14R
SPRINGFIELD    CLEAR     51  44  77 SW6       30.16R
TAYLORVILLE    CLEAR     50  45  81 W8        30.16S
$$

ILZ033-039-045-046-055>057-062-063-221200-
EAST-CENTRAL ILLINOIS

CITY           SKY/WX    TMP DP  RH WIND       PRES   REMARKS
CHAMPAIGN      CLEAR     48  44  86 W8        30.14R
DANVILLE*      CLEAR     48  44  86 SW7       30.11R
RANTOUL*       CLEAR     53  46  77 W7        30.14R
MATTOON        CLEAR     51  43  74 SW8       30.16R
PARIS*         CLEAR     49  44  80 SW8       30.16R
$$

ILZ079-100>102-221200-
SOUTHWEST ILLINOIS

CITY           SKY/WX    TMP DP  RH WIND       PRES   REMARKS
ALTON          CLEAR     50  49  97 SW7       30.21S
BELLEVILLE     CLEAR     46  46  99 W5        30.21R
CAHOKIA*       CLEAR     47  43  86 CALM      30.22R
SPARTA*        CLEAR     47  43  86 SW3       30.24S
$$

ILZ064>066-069>071-074>076-080>082-084>086-088>090-092>094-221200-
SOUTH-CENTRAL ILLINOIS

CITY           SKY/WX    TMP DP  RH WIND       PRES   REMARKS
CARBONDALE     CLEAR     44  42  93 S5        30.25R
CAIRO*         CLEAR     46  46  97 CALM      30.27R
EFFINGHAM*     CLEAR     48  41  77 SW3       30.20S
MARION         CLEAR     46  45  93 S5        30.26R
MT. VERNON     CLEAR     45  39  81 SW5       30.24S
CENTRALIA*     CLEAR     48  42  82 SW5       30.22S
SALEM*         CLEAR     49  44  83 SW5       30.22R
METROPOLIS*    CLEAR     43  43 100 CALM      30.26R FOG
$$

ILZ067-068-072-073-078-083-087-091-221200-
SOUTHEAST ILLINOIS

CITY           SKY/WX    TMP DP  RH WIND       PRES   REMARKS
LAWRENCEVILLE  CLEAR     47  43  86 SW8       30.22R
FLORA*         CLEAR     47  43  84 SW7       30.22S
FAIRFIELD*     CLEAR     45  43  93 S3        30.22S
HARRISBURG*    CLEAR     44  44 100 CALM      30.27R
ROBINSON*      CLEAR     49  43  79 SW8       30.20R
CARMI*         CLEAR     46  40  79 SW5       30.24R
$$

ABBREVIATIONS USED IN REMARKS
   TC - TEMPERATURE IN CELSIUS
  WCI - WIND CHILL INDEX
   HX - HEAT INDEX
  VSB - VISIBILITY
$$



USA.gov is the U.S. government's official web portal to all federal, state and local government web resources and services.